{"data":{"norad_id":55143,"intl_designator":"2023-004D","name":"ONEWEB-0543","alt_names":[],"object_type":"PAYLOAD","status":"ACTIVE","operator":null,"country":"UK","launch_date":"2023-01-10","launch_site_code":"AFETR","launch_vehicle":null,"mission":null,"orbit_class":"UNKNOWN","rcs_meters":null,"size_class":null,"mass_kg":null,"dimensions":null,"purposes":["comms"],"wikipedia_slug":null,"has_3d_model":false,"image_url":null,"decayed_at":null,"tle_current":{"epoch":"2026-09-19T11:28:51.879936Z","epoch_age_seconds":110318,"freshness":"FRESH","line1":"1 55143U 23004D   26262.47837824  .00003302  00000+0  83406-2 0  9998","line2":"2 55143  87.9158 316.7299 0001889  96.5140 263.6208 13.18671305182122","mean_motion":13.18671305,"eccentricity":0.0001889,"inclination_deg":87.9158,"raan_deg":316.7299,"arg_perigee_deg":96.514,"mean_anomaly_deg":263.6208,"bstar":0.0083406,"rev_number":18212,"period_min":109.20082923925,"perigee_km":1188.3697668455,"apogee_km":1191.2289331986,"semimajor_km":7567.9363500221,"source":"CELESTRAK","updated_at":"2026-09-20T09:00:44.750451Z"}}}